Location: ??????
(38.1138°N, 23.8630°E)
Time: 05:27:16
(UTC+00:00)

Daily predictions for brighter satellites

Satellite Brightness Start Highest point End
(mag) Time Altitude Azimuth Time Altitude Azimuth Time Altitude Azimuth
SJ 16-02 4.4 00:04:40 10° ENE 00:04:40 10° ENE 00:04:43 10° ENE
ADEOS II 3.9 00:04:03 10° NNE 00:06:48 28° NE 00:06:48 28° NE
SL-16 R/B 3.7 00:40:26 33° NW 00:40:26 33° NW 00:43:47 10° NNW
SL-8 Rocket 4.3 00:36:19 10° N 00:41:26 61° N 00:41:26 61° N
IDEFIX/ARIANE 42P 3.6 00:41:47 10° NNE 00:46:07 42° ENE 00:46:07 42° ENE
CZ-2D R/B 3.7 00:42:11 10° N 00:45:05 28° NNW 00:45:05 28° NNW
Milstar 3 4.2 00:49:41 30° SSE 00:49:41 30° SSE 00:57:58 10° E
Resurs 1-4 Rocket 3.9 00:55:13 10° N 00:57:35 22° NNW 00:57:35 22° NNW
Cosmos 2218 Rocket 4.0 00:57:45 10° N 01:03:05 67° NNW 01:03:05 67° NNW
CZ-4B R/B 4.0 01:03:03 10° NNE 01:07:16 50° E 01:07:16 50° E
Gblst 52 Del rocket 4.2 01:10:34 82° N 01:10:34 82° N 01:16:04 10° NE
Cosmos 1238 Rocket 4.1 01:04:49 10° NNW 01:09:56 60° NW 01:09:56 60° NW
Lacrosse 5 rocket 2.5 01:11:26 45° ENE 01:11:26 45° ENE 01:15:23 10° ESE
ARIANE 5 R/B 3.0 01:10:44 10° NNE 01:15:52 55° E 01:16:29 52° SE
Cosmos 1844 Rocket 4.5 01:21:29 19° NW 01:21:29 19° NW 01:24:38 10° N
Cosmos 2082 Rocket 4.4 01:16:51 10° N 01:21:20 24° NE 01:25:47 10° ESE
Cosmos 2366 rocket 4.2 01:17:43 10° NNW 01:22:55 52° WNW 01:22:55 52° WNW
Cosmos 2242 Rocket 4.0 01:24:51 61° ENE 01:24:51 61° ENE 01:28:52 10° NNE
IRS-1D 4.4 01:21:44 10° N 01:25:27 37° NW 01:25:27 37° NW
Cosmos 1821 Rocket 4.1 01:28:21 10° N 01:34:40 76° E 01:39:41 17° SSE
SJ 16-02 2.1 01:41:39 41° NNW 01:41:39 41° NNW 01:45:04 10° N
Cosmos 2278 Rocket 2.1 01:41:27 62° WSW 01:42:16 72° WNW 01:47:57 10° NNE
COSMOS 2406 3.4 01:37:00 10° NNW 01:42:41 71° ENE 01:48:18 10° SSE
Nadezhda 3 Rocket 3.9 01:41:25 44° SSW 01:43:37 81° W 01:50:00 10° N
Cosmos 1538 Rocket 3.9 01:38:44 10° NNW 01:44:06 69° WSW 01:45:01 57° SSW
Cosmos 1833 Rocket 2.9 01:39:45 10° NNW 01:45:24 71° ENE 01:51:01 10° SSE
ADEOS II 3.5 01:44:21 10° NNW 01:47:45 23° NW 01:47:45 23° NW
CZ-2C R/B 3.8 01:47:35 10° NNE 01:51:08 40° E 01:52:30 29° SSE
ADEOS Rocket 3.2 01:53:02 44° SW 01:54:02 48° W 02:00:22 10° NNW
IRS-1C 4.4 01:53:17 10° N 01:58:22 46° WNW 01:59:10 43° W
Cosmos 1378 3.5 01:57:48 45° SSE 01:58:41 61° E 02:02:20 10° NNE
Cosmos 158 Rocket 3.7 01:55:37 10° NNW 02:00:35 86° WSW 02:05:27 10° SSE
Okean 1-7 3.2 02:03:57 49° W 02:03:59 49° W 02:08:09 10° N
deb Kosmos-1763 3.8 02:08:57 10° NNW 02:12:29 85° WSW 02:16:00 10° SSE
CZ-4C R/B 4.1 02:06:31 10° NNW 02:13:37 47° NE 02:21:41 10° ESE
Cosmos 1680 Rocket 3.8 02:08:54 10° NNW 02:14:12 71° ENE 02:19:29 10° SSE
Abrixas rocket 3.3 02:16:47 27° NE 02:16:47 27° NE 02:18:22 10° E
CREW DRAGON DEMO-1 DEB 2.7 02:18:28 66° N 02:18:28 66° N 02:21:01 10° NE
CZ-2D R/B 3.9 02:15:45 10° N 02:19:34 40° WNW 02:20:13 37° W
Cosmos 1943 Rocket 3.5 02:15:23 10° S 02:20:36 39° ESE 02:25:49 10° NE
Cosmos 1908 Rocket 4.5 02:20:59 10° NNW 02:24:41 29° W 02:24:41 29° W
IDEFIX/ARIANE 42P 3.9 02:22:09 10° NNW 02:26:01 21° WNW 02:26:56 20° W
Cosmos 2221 Rocket 3.9 02:23:25 10° S 02:27:49 68° E 02:32:17 10° NNE
Cosmos 1934 Rocket 3.9 02:22:34 10° N 02:28:53 73° W 02:35:04 10° S
Gbstr 26 Del rocket 4.4 02:26:23 22° W 02:29:26 37° NNW 02:33:57 10° NE
IRAS Rocket 4.1 02:28:39 10° S 02:34:06 70° WSW 02:39:37 10° NNW
Okean 3 3.8 02:32:31 26° SW 02:34:30 44° W 02:38:38 10° N
Cosmos 1605 Rocket 4.0 02:30:46 10° N 02:36:53 82° E 02:43:01 10° S
Okean 2 Rocket 3.6 02:32:33 10° N 02:36:59 62° E 02:41:20 10° SSE
Cosmos 923 Rocket 4.1 02:34:14 10° NNW 02:39:14 49° WSW 02:44:15 10° S
Cosmos 1805 3.6 02:35:36 10° N 02:39:31 69° E 02:43:24 10° SSE
ATLAS 5 CENTAUR R/B 2.5 02:36:24 10° NNW 02:42:18 89° WSW 02:49:12 10° SSE
Cosmos 1356 Rocket 3.4 02:38:20 10° N 02:42:26 82° E 02:46:33 10° S
Meteor 1-12 Rocket 4.4 02:38:45 10° NNW 02:44:38 57° W 02:50:27 10° S
CZ-2C R/B 2.7 02:43:41 10° N 02:48:09 45° WNW 02:52:18 12° SW
Lacrosse 5 rocket 2.7 02:47:20 15° W 02:49:50 23° WSW 02:53:25 10° S
ARIANE 5 R/B 4.1 02:51:03 10° NNW 02:54:29 18° WNW 02:56:50 14° W
FALCON 9 DEB 4.2 02:52:59 10° NW 02:56:22 47° NE 02:59:43 10° ESE
Cosmos 489 Rocket 4.4 02:51:45 10° NNW 02:57:58 85° WSW 03:04:11 10° SSE
ALOS 2.2 02:53:51 10° N 02:58:29 67° WNW 03:03:06 10° SSW
Landsat 5 3.7 02:56:51 10° SSE 03:01:12 84° ENE 03:05:42 10° N
DELTA 2 R/B (1) 3.6 02:57:52 14° WSW 03:02:38 88° SSE 03:08:15 10° ENE
Cosmos 1898 Rocket 4.5 02:59:22 14° WSW 03:02:59 29° WNW 03:07:32 10° N
Cosmos 1733 3.1 03:01:27 10° NNW 03:05:13 68° W 03:08:56 10° S
Cosmos 2082 Rocket 2.4 03:00:16 10° NW 03:05:37 47° WSW 03:10:57 10° S
Meteor 1-23 Rocket 4.4 03:00:11 10° SSW 03:05:38 53° WNW 03:11:12 10° N
Cosmos 1727 Rocket 4.0 03:00:08 10° S 03:06:19 80° W 03:12:34 10° N
Sich 1 Rocket 4.1 03:02:26 10° NNW 03:06:42 39° W 03:10:57 10° SSW
SJ-6F 4.4 03:03:25 10° N 03:07:33 71° WNW 03:11:37 10° SSW
Cosmos 1937 Rocket 4.2 03:04:41 11° SW 03:09:13 34° WNW 03:13:53 10° N
Cosmos 1300 Rocket 4.0 03:06:37 10° NNW 03:10:48 41° W 03:14:58 10° SSW
PSLV R/B 4.2 03:07:09 10° N 03:11:03 36° WNW 03:14:53 10° SW
FENGYUN 3A 3.9 03:06:07 10° N 03:11:20 51° WNW 03:16:30 10° SSW
H-2A R/B 3.6 03:09:27 10° S 03:11:22 14° SE 03:14:48 10° ESE
Cosmos 1842 3.2 03:09:03 10° S 03:12:56 83° W 03:16:50 10° N
CZ-4B R/B 4.5 03:11:12 10° NNE 03:15:19 66° ESE 03:19:35 10° S
Okean 1 Rocket 3.6 03:17:33 10° N 03:22:02 68° E 03:26:28 10° SSE
X-37B 0.7 03:18:54 10° SW 03:22:03 72° SSE 03:25:13 10° ENE
H-2A R/B 2.1 03:19:40 10° SSE 03:23:47 80° ENE 03:28:00 10° N
Meteor 1-31 Rocket 2.8 03:20:19 10° NNE 03:24:08 82° ESE 03:27:57 10° S
Okean 2 3.4 03:21:30 10° S 03:25:35 84° W 03:29:45 10° N
CZ-3B R/B 4.2 03:22:43 10° WSW 03:40:45 45° NW 03:45:18 10° NNE
